This is the latest recevied weather packets stored in our database for station/object K7TUS-6. If no packets are shown the sender has not sent any weather packets the latest 1 day(s).
| Time | Temp. | Humidity | Pressure | Rain* | Wind** | Luminosity | Snow |
|---|---|---|---|---|---|---|---|
| 1778054404 | 2.78° C | 31% | 979.7 hPa | - | 2.24 m/s, 175° | - | - |
| 1778053804 | 2.22° C | 32% | 978.6 hPa | - | 4.47 m/s, 190° | - | - |
| 1778053503 | 2.78° C | 36% | 978.7 hPa | - | 2.68 m/s, 162° | - | - |
| 1778053208 | 2.78° C | 29% | 979.6 hPa | - | 3.58 m/s, 186° | - | - |
| 1778052908 | 2.78° C | 29% | 979.5 hPa | - | 1.79 m/s, 207° | - | - |
| 1778052307 | 3.33° C | 27% | 978.5 hPa | - | 2.68 m/s, 156° | - | - |
| 1778052006 | 2.78° C | 27% | 978.4 hPa | - | 3.13 m/s, 178° | - | - |
| 1778051715 | 2.78° C | 30% | 978.3 hPa | - | 1.34 m/s, 139° | - | - |
| 1778051105 | 2.78° C | 32% | 978.9 hPa | - | 1.79 m/s, 150° | - | - |
| 1778050805 | 2.78° C | 32% | 978.9 hPa | - | 2.68 m/s, 150° | - | - |
| 1778050504 | 2.22° C | 30% | 978.7 hPa | - | 5.81 m/s, 197° | - | - |
| 1778049903 | 2.22° C | 29% | 978.6 hPa | - | 4.92 m/s, 188° | - | - |
| 1778049609 | 2.22° C | 30% | 978 hPa | - | 5.81 m/s, 209° | - | - |
| 1778049308 | 2.78° C | 27% | 978.2 hPa | - | 4.47 m/s, 159° | - | - |
| 1778049008 | 2.78° C | 25% | 977.9 hPa | - | 5.36 m/s, 195° | - | - |
| 1778048407 | 2.78° C | 28% | 978.7 hPa | - | 1.34 m/s, 176° | - | - |
| 1778048106 | 2.78° C | 31% | 979.4 hPa | - | 4.92 m/s, 162° | - | - |
| 1778047806 | 2.78° C | 31% | 978.3 hPa | - | 4.92 m/s, 182° | - | - |
| 1778047505 | 2.78° C | 28% | 978.5 hPa | - | 6.26 m/s, 196° | - | - |
| 1778047204 | 2.78° C | 33% | 978.4 hPa | - | 4.02 m/s, 192° | - | - |
| 1778046904 | 2.22° C | 36% | 977.4 hPa | - | 7.15 m/s, 186° | - | - |
| 1778046609 | 2.22° C | 37% | 978.4 hPa | - | 8.05 m/s, 194° | - | - |
| 1778046309 | 1.67° C | 40% | 978.7 hPa | - | 8.05 m/s, 216° | - | - |
| 1778046008 | 1.67° C | 37% | 978.2 hPa | - | 7.15 m/s, 208° | - | - |
| 1778045707 | 1.67° C | 37% | 979.2 hPa | - | 6.26 m/s, 242° | - | - |
* Rain since midnight (hover to see other rain measurements)
** Current wind speed in m/s (hover to see current wind gust speed)